Andover, NJ

10:23 PM EDT on May 23, 2017 (GMT -0400)
Andover

Weather History for K12N - August, 2014

Change the Weather History Date:

Tuesday, August 12, 2014

  Actual Average (KFWN) Record (KFWN)
Temperature  
Mean Temperature 72 °F -  
Max Temperature 75 °F 80 °F 95 °F (2002)
Min Temperature 68 °F 58 °F 41 °F (1968)
Cooling Degree Days 6    
Growing Degree Days 22 (Base 50)    
Moisture  
Dew Point 65 °F    
Average Humidity 83    
Maximum Humidity 90    
Minimum Humidity 73    
Precipitation  
Precipitation 0.02 in - - ()
Sea Level Pressure  
Sea Level Pressure 29.97 in    
Wind  
Wind Speed 4 mph (North)    
Max Wind Speed 8 mph    
Max Gust Speed 23 mph    
Averages and records for this station are not official NWS values.
T = Trace of Precipitation, MM = Missing Value Source: NWS Daily Summary

Daily Weather History Graph

Daily Weather History Graph

Search for Another Location

Airport or City:

Trip Planner

Search our weather history database for the weather conditions in past years. The results will help you decide how hot, cold, wet, or windy it might be!

Date:

Astronomy

Aug. 12, 2014 Rise Set
Actual Time 6:05 AM EDT 8:01 PM EDT
Civil Twilight 5:35 AM EDT 8:31 PM EDT
Nautical Twilight 4:59 AM EDT 9:07 PM EDT
Astronomical Twilight 4:20 AM EDT 9:46 PM EDT
Moon 9:05 PM EDT (8/12) 8:21 AM EDT (8/12)
Length of Visible Light 14h 55m
Length of Day
13h 55m
Waning Gibbous, 95% of the Moon is Illuminated
Aug 12
Waning Gibbous
Aug 17
Last Quarter
Aug 25
New
Sep 2
First Quarter
Sep 8
Full

Hourly Weather History & Observations

Time (EDT) Temp. Dew Point Humidity Pressure Visibility Wind Dir Wind Speed Gust Speed Precip Events Conditions
12:54 AM 68.0 °F 64.0 °F 87% 30.07 in - Variable 3.5 mph - N/A   Unknown
1:54 AM 68.0 °F 64.9 °F 90% 30.06 in - Calm Calm - N/A   Unknown
2:54 AM 68.0 °F 64.9 °F 90% 30.04 in - Variable 3.5 mph - N/A   Unknown
3:54 AM 68.0 °F 64.9 °F 90% 30.03 in - Calm Calm - N/A   Unknown
4:54 AM 69.1 °F 64.9 °F 87% 30.02 in - Variable 3.5 mph - N/A   Unknown
5:54 AM 69.1 °F 64.0 °F 84% 30.02 in - Variable 4.6 mph - N/A   Unknown
6:54 AM 69.1 °F 64.9 °F 87% 30.02 in - South 8.1 mph - N/A   Unknown
7:54 AM 69.1 °F 64.9 °F 87% 30.02 in - North - - 0.01 in   Unknown
8:54 AM 70.0 °F 64.9 °F 84% 30.01 in - Variable 6.9 mph - N/A   Unknown
9:54 AM 72.0 °F 64.9 °F 78% 30.00 in - Calm Calm - N/A   Unknown
10:54 AM 73.0 °F 66.0 °F 79% 30.00 in - Variable 3.5 mph - N/A   Unknown
11:54 AM 73.9 °F 64.9 °F 73% 30.00 in - Variable 5.8 mph - N/A   Unknown
1:54 PM 73.0 °F 66.0 °F 79% 29.97 in - North - - N/A   Unknown
2:54 PM 73.9 °F 66.9 °F 79% 29.95 in - Variable 3.5 mph - N/A   Unknown
3:54 PM 73.9 °F 66.9 °F 79% 29.95 in - Variable 5.8 mph - N/A   Unknown
4:54 PM 75.0 °F 66.9 °F 76% 29.92 in - Variable 5.8 mph - N/A   Unknown
5:54 PM 72.0 °F 64.9 °F 78% 29.93 in - South 8.1 mph 23.0 mph N/A   Unknown
6:54 PM 71.1 °F 62.1 °F 73% 29.91 in - Variable 3.5 mph 18.4 mph N/A   Unknown
7:54 PM 69.1 °F 64.9 °F 87% 29.91 in - Variable 4.6 mph - N/A   Unknown
8:54 PM 70.0 °F 63.0 °F 78% 29.91 in - Variable 3.5 mph - N/A   Unknown
9:54 PM 70.0 °F 63.0 °F 78% 29.89 in - Variable 3.5 mph - N/A   Unknown
10:54 PM 68.0 °F 64.9 °F 90% 29.87 in - Calm Calm - N/A   Unknown
11:54 PM 69.1 °F 66.0 °F 90% 29.84 in - Variable 3.5 mph - 0.01 in   Unknown